User: anonymous   Login
Location: Brno
(49.2000°N, 16.6330°E)
Time: 14:42:40
(UTC+02:00)
Language:

Cosmos 2227 - Orbit

View from above orbital plane
View from above orbital plane
View from above satellite
View from above satellite

Ground track
Ground track

The orbit data is extracted from the following two-line orbital elements,

1 22284U 92093A   17265.78841856 -.00000260  00000-0 -11321-3 0  9990
2 22284  70.9806  30.8778 0018266  16.5512 343.6202 14.13290552276430
Epoch (UTC): 22 September 2017 18:55:19
Eccentricity: 0.0018266
inclination: 70.9806°
perigee height: 835 km
apogee height: 861 km
right ascension of ascending node: 30.8778°
argument of perigee: 16.5512°
revolutions per day: 14.13290552
mean anomaly at epoch: 343.6202°
orbit number at epoch: 27643

The dashed part of the orbit path shows where the satellite is in the earth's shadow,  

DLR